Hayward, WI

8:38 AM CST on November 21, 2019 (GMT -0600)
Sawyer County

Weather History for KHYR - September, 2019

Change the Weather History Date:

Wednesday, September 4, 2019

  Actual Average Record
Temperature  
Mean Temperature 56 °F -  
Max Temperature 66 °F 76 °F 91 °F (2007)
Min Temperature 45 °F 38 °F 33 °F (1997)
Degree Days  
Heating Degree Days 10    
Growing Degree Days 6 (Base 50)    
Moisture  
Dew Point 46 °F    
Average Humidity 78    
Maximum Humidity 93    
Minimum Humidity 48    
Precipitation  
Precipitation 0.00 in - - ()
Sea Level Pressure  
Sea Level Pressure 30.13 in    
Wind  
Wind Speed 3 mph (North)    
Max Wind Speed 9 mph    
Max Gust Speed -    
Visibility 10 miles    
Events      
Averages and records for this station are not official NWS values.
T = Trace of Precipitation, MM = Missing Value Source: NWS Daily Summary

Daily Weather History Graph

Daily Weather History Graph

Search for Another Location

Airport or City:

Astronomy

Sep. 04, 2019 Rise Set
Actual Time 6:29 AM CDT 7:38 PM CDT
Civil Twilight 5:59 AM CDT 8:09 PM CDT
Nautical Twilight 5:22 AM CDT 8:46 PM CDT
Astronomical Twilight 4:43 AM CDT 9:25 PM CDT
Moon 12:51 PM CDT (9/4) 10:53 PM CDT (9/4)
Length of Visible Light 14h 10m
Length of Day
13h 08m
Waxing Crescent, 35% of the Moon is Illuminated
Sep 4
Waxing Crescent
Sep 5
First Quarter
Sep 13
Full
Sep 21
Last Quarter
Sep 28
New

Hourly Weather History & Observations

Time (CDT) Temp. Dew Point Humidity Pressure Visibility Wind Dir Wind Speed Gust Speed Precip Events Conditions
12:20 AM 54.0 °F 48.9 °F 83% 30.01 in 10.0 mi North 9.2 mph - N/A   Scattered Clouds
12:38 AM 53.1 °F 48.9 °F 86% 30.02 in 10.0 mi Variable 3.5 mph - N/A   Mostly Cloudy
12:53 AM 53.1 °F 48.9 °F 86% 30.04 in 10.0 mi Variable 3.5 mph - N/A   Overcast
1:53 AM 52.0 °F 48.0 °F 86% 30.06 in 10.0 mi NNW 3.5 mph - N/A   Mostly Cloudy
2:06 AM 52.0 °F 48.0 °F 86% 30.05 in 10.0 mi Calm Calm - N/A   Scattered Clouds
2:23 AM 51.1 °F 48.0 °F 89% 30.06 in 10.0 mi Calm Calm - N/A   Mostly Cloudy
2:53 AM 51.1 °F 48.0 °F 89% 30.07 in 10.0 mi Calm Calm - N/A   Overcast
3:53 AM 52.0 °F 46.9 °F 83% 30.08 in 10.0 mi Calm Calm - N/A   Mostly Cloudy
4:17 AM 51.1 °F 46.9 °F 86% 30.09 in 10.0 mi Calm Calm - N/A   Scattered Clouds
4:53 AM 48.9 °F 46.0 °F 90% 30.10 in 10.0 mi Calm Calm - N/A   Mostly Cloudy
5:05 AM 48.0 °F 45.0 °F 89% 30.10 in 10.0 mi Calm Calm - N/A   Scattered Clouds
5:53 AM 45.0 °F 43.0 °F 93% 30.12 in 9.0 mi Calm Calm - N/A   Clear
6:27 AM 46.9 °F 45.0 °F 93% 30.13 in 10.0 mi North 3.5 mph - N/A   Mostly Cloudy
6:40 AM 48.9 °F 46.9 °F 93% 30.13 in 10.0 mi Variable 3.5 mph - N/A   Mostly Cloudy
6:53 AM 48.9 °F 46.9 °F 93% 30.15 in 10.0 mi Calm Calm - N/A   Mostly Cloudy
7:24 AM 48.9 °F 46.9 °F 93% 30.15 in 10.0 mi NE 3.5 mph - N/A   Mostly Cloudy
7:36 AM 48.9 °F 46.0 °F 90% 30.14 in 10.0 mi NE 9.2 mph - N/A   Overcast
7:53 AM 50.0 °F 46.0 °F 86% 30.18 in 10.0 mi NNE 3.5 mph - N/A   Mostly Cloudy
8:35 AM 52.0 °F 46.9 °F 83% 30.18 in 10.0 mi Calm Calm - N/A   Mostly Cloudy
8:49 AM 53.6 °F 46.4 °F 77% 30.18 in 10.0 mi NNW 4.6 mph - N/A   Mostly Cloudy
8:53 AM 52.0 °F 45.0 °F 77% 30.19 in 10.0 mi NNW 3.5 mph - N/A   Mostly Cloudy
9:03 AM 53.1 °F 46.0 °F 77% 30.18 in 10.0 mi Calm Calm - N/A   Scattered Clouds
9:29 AM 54.0 °F 46.0 °F 75% 30.18 in 10.0 mi Calm Calm - N/A   Mostly Cloudy
9:53 AM 55.0 °F 45.0 °F 69% 30.19 in 10.0 mi NNE 3.5 mph - N/A   Mostly Cloudy
10:53 AM 57.9 °F 46.0 °F 65% 30.19 in 10.0 mi Variable 4.6 mph - N/A   Mostly Cloudy
11:53 AM 59.0 °F 44.1 °F 58% 30.19 in 10.0 mi NNW 3.5 mph - N/A   Scattered Clouds
12:53 PM 61.0 °F 44.1 °F 54% 30.20 in 10.0 mi Calm Calm - N/A   Clear
1:53 PM 62.1 °F 43.0 °F 50% 30.18 in 10.0 mi Calm Calm - N/A   Scattered Clouds
2:53 PM 63.0 °F 45.0 °F 52% 30.17 in 10.0 mi Variable 4.6 mph - N/A   Partly Cloudy
3:53 PM 66.0 °F 46.0 °F 48% 30.16 in 10.0 mi Calm Calm - N/A   Clear
4:53 PM 66.0 °F 46.9 °F 50% 30.15 in 10.0 mi Calm Calm - N/A   Clear
5:53 PM 64.9 °F 46.9 °F 52% 30.15 in 10.0 mi WSW 3.5 mph - N/A   Partly Cloudy
6:53 PM 63.0 °F 48.0 °F 58% 30.15 in 10.0 mi SW 3.5 mph - N/A   Clear
7:53 PM 55.0 °F 51.1 °F 86% 30.14 in 10.0 mi Calm Calm - N/A   Clear
8:53 PM 52.0 °F 48.0 °F 86% 30.15 in 10.0 mi Calm Calm - N/A   Clear
9:53 PM 48.0 °F 45.0 °F 89% 30.14 in 10.0 mi Calm Calm - N/A   Clear
10:53 PM 48.0 °F 44.1 °F 86% 30.15 in 10.0 mi Calm Calm - N/A   Clear
11:53 PM 46.0 °F 43.0 °F 89% 30.14 in 6.0 mi Calm Calm - N/A   Clear